Weather History for Rapid City, SD

Change the Weather History Date:

Saturday, January 19, 2013

  Actual Average Record
Temperature  
Mean Temperature 32 °F 25 °F  
Max Temperature 44 °F 37 °F 66 °F (1900)
Min Temperature 20 °F 13 °F -26 °F (1963)
Degree Days  
Heating Degree Days 33 40  
Month to date heating degree days 728 762  
Since 1 July heating degree days 3475 3678  
Cooling Degree Days 0 0  
Month to date cooling degree days 0 0  
Year to date cooling degree days 0 0  
Moisture  
Dew Point 20 °F    
Average Humidity 65    
Maximum Humidity 91    
Minimum Humidity 38    
Precipitation  
Precipitation 0.00 in 0.00 in 0.15 in (1945)
Month to date precipitation 0.22 0.19  
Year to date precipitation 0.22 0.19  
Snow  
Snow 0.00 in 0.20 in - ()
Month to date snowfall 3.5 2.7  
Since 1 July snowfall 13.1 15.9  
Snow Depth 0.00 in    
Sea Level Pressure  
Sea Level Pressure 30.16 in    
Wind  
Wind Speed 14 mph (North)    
Max Wind Speed 32 mph    
Max Gust Speed 39 mph    
Visibility 10 miles    
Events      
T = Trace of Precipitation, MM = Missing Value Source: NWS Daily Summary

Daily Weather History Graph

Daily Weather History Graph

Search for Another Location

Airport:

Trip Planner

Search our weather history database for the weather conditions in past years. The results will help you decide how hot, cold, wet, or windy it might be!

Date:

Astronomy

Jan. 19, 2013 Rise Set
Actual Time 7:21 AM MST 4:45 PM MST
Civil Twilight 6:49 AM MST 5:17 PM MST
Nautical Twilight 6:14 AM MST 5:52 PM MST
Astronomical Twilight 5:39 AM MST 6:26 PM MST
Moon 11:15 AM MST (1/19) 12:54 AM MST (1/19)
Length of Visible Light 10h 27m
Length of Day
9h 24m
First Quarter, 58% of the Moon is Illuminated
Jan 19
First Quarter
Jan 26
Full
Feb 3
Last Quarter
Feb 10
New
Feb 17
First Quarter

Hourly Weather History & Observations

Time (MST) Temp. Windchill Dew Point Humidity Pressure Visibility Wind Dir Wind Speed Gust Speed Precip Events Conditions
12:52 AM 34.0 °F 26.6 °F 18.0 °F 52% 29.93 in 10.0 mi WNW 9.2 mph - N/A   Clear
1:52 AM 41.0 °F 33.1 °F 18.0 °F 40% 29.95 in 10.0 mi NW 15.0 mph - N/A   Clear
2:52 AM 30.0 °F 21.7 °F 17.1 °F 59% 29.99 in 10.0 mi WNW 9.2 mph - N/A   Clear
3:52 AM 32.0 °F 23.0 °F 18.0 °F 56% 30.00 in 10.0 mi WNW 11.5 mph - N/A   Clear
4:52 AM 34.0 °F 26.6 °F 18.0 °F 52% 30.02 in 10.0 mi NW 9.2 mph 19.6 mph N/A   Clear
5:52 AM 33.1 °F 25.5 °F 18.0 °F 54% 30.06 in 10.0 mi NW 9.2 mph - N/A   Clear
6:52 AM 35.1 °F 26.9 °F 18.0 °F 50% 30.07 in 10.0 mi NW 11.5 mph - N/A   Clear
7:52 AM 39.0 °F 30.3 °F 19.0 °F 45% 30.09 in 10.0 mi NNW 16.1 mph - N/A   Clear
8:52 AM 42.1 °F 33.9 °F 19.9 °F 41% 30.12 in 10.0 mi NNW 17.3 mph - N/A   Clear
9:52 AM 43.0 °F 34.8 °F 21.0 °F 42% 30.15 in 10.0 mi North 18.4 mph 26.5 mph N/A   Clear
10:52 AM 43.0 °F 33.5 °F 21.9 °F 43% 30.19 in 10.0 mi North 24.2 mph 33.4 mph N/A   Clear
11:52 AM 43.0 °F 33.8 °F 23.0 °F 45% 30.19 in 10.0 mi NNW 23.0 mph 27.6 mph N/A   Clear
12:52 PM 43.0 °F 33.3 °F 23.0 °F 45% 30.20 in 10.0 mi North 25.3 mph 34.5 mph N/A   Clear
1:52 PM 42.8 °F 32.7 °F 23.0 °F 46% 30.14 in 10.0 mi North 27.6 mph 36.8 mph N/A   Clear
2:52 PM 39.9 °F 30.2 °F 23.0 °F 51% 30.25 in 10.0 mi North 20.7 mph 26.5 mph N/A   Clear
3:52 PM 37.0 °F 25.9 °F 21.9 °F 54% 30.26 in 10.0 mi North 23.0 mph - N/A   Clear
4:52 PM 33.1 °F 22.2 °F 21.9 °F 64% 30.28 in 10.0 mi North 17.3 mph - N/A   Clear
5:52 PM 30.0 °F 20.5 °F 19.9 °F 66% 30.30 in 10.0 mi North 11.5 mph - N/A   Clear
6:52 PM 26.1 °F 19.4 °F 18.0 °F 71% 30.31 in 10.0 mi NNE 5.8 mph - N/A   Clear
7:52 PM 26.1 °F 20.5 °F 19.9 °F 78% 30.31 in 10.0 mi SE 4.6 mph - N/A   Clear
8:52 PM 23.0 °F 15.8 °F 19.0 °F 85% 30.31 in 10.0 mi SSE 5.8 mph - N/A   Clear
9:52 PM 23.0 °F 13.1 °F 18.0 °F 81% 30.27 in 10.0 mi SE 9.2 mph - N/A   Partly Cloudy
10:52 PM 19.9 °F 9.3 °F 17.1 °F 89% 30.24 in 10.0 mi SE 9.2 mph - N/A   Clear
11:52 PM 21.0 °F 9.3 °F 15.1 °F 78% 30.21 in 10.0 mi SE 11.5 mph - N/A   Clear